Location: Doazon
(43.4500°N, 0.5500°W)
Time: 15:24:33
(UTC+00:00)

USA 215 - Pass Details

Date: 05 December 2025
Orbit: 1098 x 1109 km, 123.0° (Epoch: 10 January)

Event Time Altitude Azimuth Distance (km) Brightness Sun altitude
Exits shadow 17:45:58 18° 59° (ENE) 2,424 4.5 -14.0°
Maximum altitude 17:49:40 30° 13° (NNE) 1,855 4.2 -14.7°
Drops below altitude 10° 17:55:11 10° 315° (NW) 2,962 5.9 -15.6°
Sets 17:57:57 0° 305° (NW) 3,919 6.7 -16.1°
